Flag for New Zealand Weather past 2 weeks in Napier, New Zealand

Now
50 °F

Passing clouds.


Feels Like: 44 °F
Forecast: 46 / 58 °F
Wind: 16 mph from Northeast

Location: Wellington Airport

Current Time: May 23, 2015 at 4:37:17 AM

Latest Report: May 23, 2015 at 4:00 AM


Visibility: N/A

Pressure: 29.77 "Hg

Humidity: 71%

Dew point: 41 °F

Location of NapierLocation

Historic Weather in Napier — Graph

°F

Napier temperature yesterday

Maximum temperature yesterday: 59 °F (at 12:00 AM)
Minimum temperature yesterday: 48 °F (at 6:00 PM)
Average temperature yesterday: 52 °F

Past Weeks' High & Low Weather Summary

 TemperatureHumidityPressure
High66 °F (May 10, 1:00 PM)100% (May 15, 12:30 AM)30.21 "Hg (May 15, 12:30 AM)
Low46 °F (May 17, 8:00 PM)44% (May 9, 7:30 AM)29.24 "Hg (May 12, 1:00 PM)
Average57 °F76%29.76 "Hg
* Reported May 8 3:00 AM — May 23 3:30 AM, Napier, Weather by CustomWeather, © 2015

Note: Actual official high and low records may vary slightly from our data, if they occured in-between our weather recording intervals... More about our weather records

Advertising

Napier weather history for previous 24 hours

 ConditionsComfort  
Time TempWeatherWind HumidityBarometerVisibility
3:30 AM
Sat, May 23
50 °FPartly cloudy.15 mph71%29.77 "HgN/A
3:00 AM50 °FPassing clouds.15 mph71%29.80 "HgN/A
2:30 AM50 °FPassing clouds.13 mph71%29.80 "HgN/A
2:00 AM50 °FPassing clouds.14 mph71%29.80 "HgN/A
1:30 AM50 °FPassing clouds.16 mph71%29.83 "HgN/A
1:00 AM50 °FPassing clouds.15 mph71%29.83 "HgN/A
12:30 AM48 °FCool.17 mph76%29.83 "HgN/A
12:00 AM48 °FCool.15 mph76%29.86 "HgN/A
11:30 PM
Fri, May 22
50 °FPassing clouds.14 mph71%29.86 "HgN/A
11:00 PM50 °FPassing clouds.13 mph71%29.86 "HgN/A
10:30 PM50 °FPassing clouds.13 mph71%29.89 "HgN/A
10:00 PM50 °FPassing clouds.14 mph71%29.89 "HgN/A
9:30 PM50 °FPassing clouds.13 mph71%29.89 "HgN/A
9:00 PM50 °FPassing clouds.10 mph71%29.92 "HgN/A
8:30 PM48 °FPassing clouds.7 mph71%29.92 "HgN/A
8:00 PM48 °FPassing clouds.8 mph76%29.92 "HgN/A
7:30 PM50 °FPassing clouds.9 mph71%29.95 "HgN/A
7:00 PM50 °FCool.6 mph67%29.95 "HgN/A
6:30 PM52 °FCool.8 mph62%29.95 "HgN/A
6:00 PM48 °FCool.5 mph66%29.92 "HgN/A
5:30 PM50 °FCool.5 mph67%29.95 "HgN/A
5:00 PM50 °FCool.5 mph58%29.92 "HgN/A
4:30 PM52 °FCool.5 mph54%29.95 "HgN/A
4:00 PM54 °FCool.2 mph54%29.95 "Hg5 mi
3:30 PM54 °FCool.2 mph51%29.95 "HgN/A
3:00 PM54 °FCool.7 mph54%29.95 "HgN/A
2:30 PM54 °FCool.8 mph51%29.98 "HgN/A
2:00 PM54 °FCool.9 mph51%29.98 "HgN/A
1:30 PM54 °FCool.10 mph51%29.98 "HgN/A
1:00 PM54 °FCool.10 mph51%29.98 "HgN/A
12:30 PM54 °FCool.13 mph54%30.01 "HgN/A
12:00 PM54 °FCool.14 mph54%30.01 "HgN/A
11:30 AM52 °FCool.16 mph58%30.04 "HgN/A
11:00 AM54 °FPassing clouds.15 mph58%30.04 "HgN/A
10:30 AM52 °FPassing clouds.14 mph62%30.01 "HgN/A
10:00 AM52 °FScattered clouds.14 mph62%30.01 "HgN/A
9:30 AM52 °FPassing clouds.15 mph58%30.01 "HgN/A
9:00 AM52 °FPassing clouds.16 mph62%29.98 "HgN/A
8:30 AM52 °FPassing clouds.18 mph62%29.98 "HgN/A
8:00 AM50 °FCool.23 mph67%29.95 "HgN/A
7:30 AM50 °FPassing clouds.18 mph71%29.95 "HgN/A
7:00 AM50 °FCool.18 mph76%29.92 "HgN/A
6:30 AM50 °FPassing clouds.21 mph71%29.92 "HgN/A
6:00 AM52 °FPassing clouds.21 mph72%29.92 "Hg6 mi
5:30 AM50 °FPassing clouds.22 mph76%29.89 "Hg6 mi
5:00 AM52 °FPassing clouds.23 mph67%29.89 "HgN/A
4:30 AM50 °FSprinkles. Mostly cloudy.26 mph76%29.86 "HgN/A
4:00 AM50 °FPartly cloudy.28 mph76%29.86 "HgN/A
Weather by CustomWeather, © 2015

See weather overviewHow to use our weather pages